Starlink 2041

operational
NORAD ID: 47657 Int'l Des: 2021-012 Owner: SPXS Country: US Constellation: starlink
LEOCIRCULARSTARLINK_TYPE

About Starlink 2041

Description loading...

Live Position

Loading 3D Globe...

Upcoming Passes

Altitude History

Altitude vs Time

uPlot chart will show altitude changes over time

Two-Line Element Set

1 47657U 21012AP 25338.76021507 .00003744 00000-0 27019-3 0 9994
2 47657 53.0541 137.7731 0001284 78.2076 281.9057 15.06384668265678
Epoch: Dec 4, 2025 • Age: 29 hours

Current Status

Altitude 547.8 km
Velocity 7.59 km/s
Sub-Earth Point 24.14°N, 135.82°W
Launch Date Feb 16, 2021
Age 4.7 years
Type internet

Technical Details

Classification Payload
Mass 260.00 kg
Dry Mass 248.00 kg
Total Mass 260.00 kg
Length 0.20 m
Diameter 2.80 m
Span 9.00 m
Shape Box + pan
Manufacturer SPXS
Bus Type Starlink
Phase Status In Orbit
Owner/State SPXS/US

Large Constellations

Loading constellations...